Time,TemperatureF,DewpointF,PressureIn,WindDirection,WindDirectionDegrees,WindSpeedMPH,WindSpeedGustMPH,Humidity,HourlyPrecipIn,Conditions,Clouds,dailyrainin,SolarRadiationWatts/m^2,SoftwareType,DateUTC
2013-07-26 00:02:00,56.0,54.0,30.01,SSW,213,0.0,-999.0,93,-99.99,,,-99.99,0.000000,,2013-07-26 04:02:00,
2013-07-26 00:12:00,56.0,54.0,30.01,SSW,213,0.0,-999.0,94,-99.99,,,-99.99,0.000000,,2013-07-26 04:12:00,
2013-07-26 00:23:00,55.0,53.0,30.02,SSW,213,0.0,-999.0,94,-99.99,,,-99.99,0.000000,,2013-07-26 04:23:00,
2013-07-26 00:32:00,55.0,53.0,30.02,SSW,213,0.0,-999.0,94,-99.99,,,-99.99,0.000000,,2013-07-26 04:32:00,
2013-07-26 00:42:00,55.0,53.0,30.01,SSW,213,0.0,-999.0,94,-99.99,,,-99.99,0.000000,,2013-07-26 04:42:00,
2013-07-26 00:53:00,55.0,53.0,30.02,SSW,213,0.0,-999.0,94,-99.99,,,-99.99,0.000000,,2013-07-26 04:53:00,
2013-07-26 01:02:00,55.0,53.0,30.02,SSW,213,0.0,-999.0,94,-99.99,,,-99.99,0.000000,,2013-07-26 05:02:00,
2013-07-26 01:12:00,55.0,53.0,30.03,SSW,213,0.0,-999.0,94,-99.99,,,-99.99,0.000000,,2013-07-26 05:12:00,
2013-07-26 01:22:00,54.0,52.0,30.02,SSW,213,0.0,-999.0,94,-99.99,,,-99.99,0.000000,,2013-07-26 05:22:00,
2013-07-26 01:32:00,54.0,52.0,30.02,SSW,213,0.0,-999.0,94,-99.99,,,-99.99,0.000000,,2013-07-26 05:32:00,
2013-07-26 01:43:00,53.0,51.0,30.02,SSW,213,0.0,-999.0,94,-99.99,,,-99.99,0.000000,,2013-07-26 05:43:00,
2013-07-26 01:52:00,53.0,51.0,30.03,SSW,213,1.0,-999.0,94,-99.99,,,-99.99,0.000000,,2013-07-26 05:52:00,
2013-07-26 02:12:00,53.0,51.0,30.03,SSW,213,0.0,-999.0,94,-99.99,,,-99.99,0.000000,,2013-07-26 06:12:00,
2013-07-26 02:22:00,53.0,52.0,30.02,SSW,213,0.0,-999.0,95,-99.99,,,-99.99,0.000000,,2013-07-26 06:22:00,
2013-07-26 02:33:00,53.0,52.0,30.02,SSW,213,0.0,-999.0,95,-99.99,,,-99.99,0.000000,,2013-07-26 06:33:00,
2013-07-26 02:43:00,52.0,51.0,30.02,SSW,213,0.0,-999.0,95,-99.99,,,-99.99,0.000000,,2013-07-26 06:43:00,
2013-07-26 02:52:00,52.0,51.0,30.02,SSW,213,0.0,-999.0,96,-99.99,,,-99.99,0.000000,,2013-07-26 06:52:00,
2013-07-26 03:02:00,52.0,51.0,30.01,SSW,205,0.0,-999.0,96,-99.99,,,-99.99,0.000000,,2013-07-26 07:02:00,
2013-07-26 03:12:00,52.0,51.0,30.01,SSW,205,0.0,-999.0,96,-99.99,,,-99.99,0.000000,,2013-07-26 07:12:00,
2013-07-26 03:22:00,52.0,51.0,30.01,SSW,213,0.0,-999.0,97,-99.99,,,-99.99,0.000000,,2013-07-26 07:22:00,
2013-07-26 03:32:00,52.0,51.0,30.02,SSW,213,0.0,-999.0,98,-99.99,,,-99.99,0.000000,,2013-07-26 07:32:00,
2013-07-26 03:43:00,52.0,51.0,30.02,SSW,213,0.0,-999.0,98,-99.99,,,-99.99,0.000000,,2013-07-26 07:43:00,
2013-07-26 03:53:00,51.0,51.0,30.01,SSW,213,0.0,-999.0,99,-99.99,,,-99.99,0.000000,,2013-07-26 07:53:00,
2013-07-26 04:02:00,51.0,51.0,30.01,SSW,213,0.0,-999.0,99,-99.99,,,-99.99,0.000000,,2013-07-26 08:02:00,
2013-07-26 04:12:00,51.0,51.0,30.01,SSW,213,0.0,-999.0,99,-99.99,,,-99.99,0.000000,,2013-07-26 08:12:00,
2013-07-26 04:22:00,51.0,51.0,30.00,SSW,213,0.0,-999.0,100,-99.99,,,-99.99,0.000000,,2013-07-26 08:22:00,
2013-07-26 04:32:00,51.0,51.0,30.00,SSW,213,1.0,-999.0,100,-99.99,,,-99.99,0.000000,,2013-07-26 08:32:00,
2013-07-26 04:44:00,51.0,51.0,30.00,SSW,213,1.0,-999.0,100,-99.99,,,-99.99,0.000000,,2013-07-26 08:44:00,
2013-07-26 04:52:00,51.0,51.0,30.00,SSW,213,0.0,-999.0,100,-99.99,,,-99.99,0.000000,,2013-07-26 08:52:00,
2013-07-26 05:02:00,51.0,51.0,30.00,SSW,213,0.0,-999.0,100,-99.99,,,-99.99,0.000000,,2013-07-26 09:02:00,
2013-07-26 05:12:00,51.0,51.0,30.00,SSW,213,0.0,-999.0,100,-99.99,,,-99.99,0.000000,,2013-07-26 09:12:00,
2013-07-26 05:22:00,51.0,51.0,30.01,SSW,213,0.0,-999.0,100,-99.99,,,-99.99,0.000000,,2013-07-26 09:22:00,
2013-07-26 05:43:00,51.0,51.0,30.01,SSW,213,0.0,-999.0,100,-99.99,,,-99.99,0.000000,,2013-07-26 09:43:00,
2013-07-26 05:52:00,51.0,51.0,30.01,SSW,213,0.0,-999.0,100,-99.99,,,-99.99,0.000000,,2013-07-26 09:52:00,
2013-07-26 06:02:00,51.0,51.0,30.01,SSW,213,0.0,-999.0,100,-99.99,,,-99.99,0.000000,,2013-07-26 10:02:00,
2013-07-26 06:12:00,51.0,51.0,30.01,SSW,213,0.0,-999.0,100,-99.99,,,-99.99,0.000000,,2013-07-26 10:12:00,
2013-07-26 06:42:00,51.0,51.0,30.02,SSW,213,0.0,-999.0,100,-99.99,,,-99.99,0.000000,,2013-07-26 10:42:00,
2013-07-26 06:53:00,51.0,51.0,30.02,SSW,213,0.0,-999.0,100,-99.99,,,-99.99,9.000000,,2013-07-26 10:53:00,
2013-07-26 07:02:00,51.0,51.0,30.02,SSW,213,0.0,-999.0,100,-99.99,,,-99.99,9.000000,,2013-07-26 11:02:00,
2013-07-26 07:12:00,50.0,50.0,30.01,SSW,213,0.0,-999.0,100,-99.99,,,-99.99,26.000000,,2013-07-26 11:12:00,
2013-07-26 07:22:00,51.0,51.0,30.02,SSW,213,1.0,-999.0,100,-99.99,,,-99.99,19.000000,,2013-07-26 11:22:00,
2013-07-26 07:32:00,51.0,51.0,30.02,SSW,213,1.0,-999.0,100,-99.99,,,-99.99,19.000000,,2013-07-26 11:32:00,
2013-07-26 07:43:00,51.0,51.0,30.02,SSW,213,0.0,-999.0,100,-99.99,,,-99.99,187.000000,,2013-07-26 11:43:00,
2013-07-26 07:52:00,52.0,52.0,30.02,SSW,213,0.0,-999.0,100,-99.99,,,-99.99,157.000000,,2013-07-26 11:52:00,
2013-07-26 08:02:00,52.0,52.0,30.02,SSW,213,0.0,-999.0,100,-99.99,,,-99.99,157.000000,,2013-07-26 12:02:00,
2013-07-26 08:12:00,52.0,52.0,30.02,SSW,213,0.0,-999.0,100,-99.99,,,-99.99,60.000000,,2013-07-26 12:12:00,
2013-07-26 08:22:00,54.0,54.0,30.03,SSW,213,0.0,-999.0,100,-99.99,,,-99.99,355.000000,,2013-07-26 12:22:00,
2013-07-26 08:43:00,56.0,56.0,30.03,SSW,213,0.0,-999.0,100,-99.99,,,-99.99,419.000000,,2013-07-26 12:43:00,
2013-07-26 08:53:00,58.0,58.0,30.03,SSW,213,0.0,-999.0,100,-99.99,,,-99.99,465.000000,,2013-07-26 12:53:00,
2013-07-26 09:02:00,58.0,58.0,30.03,SSW,213,0.0,-999.0,100,-99.99,,,-99.99,465.000000,,2013-07-26 13:02:00,
2013-07-26 09:12:00,60.0,60.0,30.02,SSW,213,0.0,-999.0,100,-99.99,,,-99.99,521.000000,,2013-07-26 13:12:00,
2013-07-26 09:32:00,62.0,59.0,30.02,SSW,213,0.0,-999.0,90,-99.99,,,-99.99,570.000000,,2013-07-26 13:32:00,
2013-07-26 09:43:00,63.0,56.0,30.02,WSW,243,0.0,-999.0,77,-99.99,,,-99.99,611.000000,,2013-07-26 13:43:00,
2013-07-26 10:02:00,64.0,54.0,30.02,NW,306,0.0,-999.0,70,-99.99,,,-99.99,655.000000,,2013-07-26 14:02:00,
2013-07-26 10:12:00,66.0,55.0,30.02,NW,306,0.0,-999.0,68,-99.99,,,-99.99,693.000000,,2013-07-26 14:12:00,
2013-07-26 10:32:00,67.0,55.0,30.01,NW,306,0.0,-999.0,66,-99.99,,,-99.99,730.000000,,2013-07-26 14:32:00,
2013-07-26 10:43:00,69.0,56.0,30.01,NW,306,0.0,-999.0,63,-99.99,,,-99.99,765.000000,,2013-07-26 14:43:00,
2013-07-26 10:53:00,70.0,55.0,30.01,NW,306,0.0,-999.0,60,-99.99,,,-99.99,799.000000,,2013-07-26 14:53:00,
2013-07-26 11:03:00,71.0,56.0,30.01,WNW,294,0.0,-999.0,59,-99.99,,,-99.99,825.000000,,2013-07-26 15:03:00,
2013-07-26 11:12:00,71.0,56.0,30.01,WNW,294,0.0,-999.0,59,-99.99,,,-99.99,825.000000,,2013-07-26 15:12:00,
2013-07-26 11:22:00,72.0,56.0,30.01,WNW,296,0.0,-999.0,57,-99.99,,,-99.99,852.000000,,2013-07-26 15:22:00,
2013-07-26 11:33:00,73.0,56.0,30.01,WNW,301,0.0,-999.0,55,-99.99,,,-99.99,876.000000,,2013-07-26 15:33:00,
2013-07-26 11:43:00,73.0,56.0,30.01,WNW,301,0.0,-999.0,55,-99.99,,,-99.99,876.000000,,2013-07-26 15:43:00,
2013-07-26 11:53:00,73.0,56.0,30.01,WNW,301,0.0,-999.0,55,-99.99,,,-99.99,876.000000,,2013-07-26 15:53:00,
2013-07-26 12:14:00,74.0,55.0,30.00,NW,306,0.0,-999.0,51,-99.99,,,-99.99,911.000000,,2013-07-26 16:14:00,
2013-07-26 12:32:00,74.0,55.0,30.00,NW,320,0.0,-999.0,51,-99.99,,,-99.99,924.000000,,2013-07-26 16:32:00,
2013-07-26 12:43:00,74.0,52.0,29.99,NW,319,0.0,-999.0,47,-99.99,,,-99.99,931.000000,,2013-07-26 16:43:00,
2013-07-26 12:54:00,75.0,54.0,29.99,NW,319,0.0,-999.0,48,-99.99,,,-99.99,941.000000,,2013-07-26 16:54:00,
2013-07-26 13:02:00,75.0,54.0,29.99,NW,319,0.0,-999.0,48,-99.99,,,-99.99,941.000000,,2013-07-26 17:02:00,
2013-07-26 13:12:00,75.0,53.0,29.99,NNW,333,0.0,-999.0,47,-99.99,,,-99.99,977.000000,,2013-07-26 17:12:00,
2013-07-26 13:22:00,75.0,52.0,29.99,NW,313,1.0,-999.0,45,-99.99,,,-99.99,948.000000,,2013-07-26 17:22:00,
2013-07-26 13:33:00,75.0,52.0,29.99,NW,313,1.0,-999.0,45,-99.99,,,-99.99,948.000000,,2013-07-26 17:33:00,
2013-07-26 13:43:00,75.0,53.0,29.99,WNW,282,0.0,-999.0,46,-99.99,,,-99.99,954.000000,,2013-07-26 17:43:00,
2013-07-26 13:53:00,76.0,53.0,29.98,NE,45,0.0,-999.0,45,-99.99,,,-99.99,952.000000,,2013-07-26 17:53:00,
2013-07-26 14:03:00,76.0,53.0,29.98,NE,45,0.0,-999.0,45,-99.99,,,-99.99,952.000000,,2013-07-26 18:03:00,
2013-07-26 14:12:00,76.0,54.0,29.97,NW,312,0.0,-999.0,46,-99.99,,,-99.99,920.000000,,2013-07-26 18:12:00,
2013-07-26 14:23:00,76.0,54.0,29.97,NW,305,1.0,-999.0,46,-99.99,,,-99.99,966.000000,,2013-07-26 18:23:00,
2013-07-26 14:33:00,76.0,54.0,29.97,NW,316,0.0,-999.0,47,-99.99,,,-99.99,887.000000,,2013-07-26 18:33:00,
2013-07-26 14:44:00,76.0,54.0,29.97,NW,316,0.0,-999.0,47,-99.99,,,-99.99,887.000000,,2013-07-26 18:44:00,
2013-07-26 14:53:00,76.0,53.0,29.97,NNW,328,0.0,-999.0,45,-99.99,,,-99.99,866.000000,,2013-07-26 18:53:00,
2013-07-26 15:03:00,75.0,52.0,29.97,WNW,287,1.0,-999.0,45,-99.99,,,-99.99,848.000000,,2013-07-26 19:03:00,
2013-07-26 15:12:00,75.0,52.0,29.97,WNW,287,1.0,-999.0,45,-99.99,,,-99.99,848.000000,,2013-07-26 19:12:00,
2013-07-26 15:22:00,75.0,50.0,29.97,WNW,289,1.0,-999.0,41,-99.99,,,-99.99,53.000000,,2013-07-26 19:22:00,
2013-07-26 15:32:00,74.0,50.0,29.98,NW,316,1.0,-999.0,43,-99.99,,,-99.99,56.000000,,2013-07-26 19:32:00,
2013-07-26 15:43:00,74.0,50.0,29.98,NW,316,1.0,-999.0,43,-99.99,,,-99.99,56.000000,,2013-07-26 19:43:00,
2013-07-26 15:52:00,74.0,50.0,29.98,NW,316,1.0,-999.0,43,-99.99,,,-99.99,56.000000,,2013-07-26 19:52:00,
2013-07-26 16:02:00,74.0,50.0,29.98,NW,316,1.0,-999.0,43,-99.99,,,-99.99,56.000000,,2013-07-26 20:02:00,
2013-07-26 16:12:00,74.0,49.0,29.97,NW,312,0.0,-999.0,41,-99.99,,,-99.99,74.000000,,2013-07-26 20:12:00,
2013-07-26 16:22:00,74.0,51.0,29.97,NW,315,0.0,-999.0,44,-99.99,,,-99.99,48.000000,,2013-07-26 20:22:00,
2013-07-26 16:32:00,74.0,51.0,29.97,NW,315,0.0,-999.0,44,-99.99,,,-99.99,48.000000,,2013-07-26 20:32:00,
2013-07-26 16:43:00,75.0,50.0,29.96,WNW,285,0.0,-999.0,42,-99.99,,,-99.99,46.000000,,2013-07-26 20:43:00,
2013-07-26 16:53:00,75.0,52.0,29.96,NW,316,0.0,-999.0,45,-99.99,,,-99.99,95.000000,,2013-07-26 20:53:00,
2013-07-26 17:12:00,75.0,53.0,29.96,WSW,237,0.0,-999.0,46,-99.99,,,-99.99,60.000000,,2013-07-26 21:12:00,
2013-07-26 17:22:00,76.0,53.0,29.96,WNW,287,1.0,-999.0,45,-99.99,,,-99.99,517.000000,,2013-07-26 21:22:00,
2013-07-26 17:32:00,76.0,53.0,29.96,WNW,282,0.0,-999.0,45,-99.99,,,-99.99,470.000000,,2013-07-26 21:32:00,
2013-07-26 17:43:00,76.0,53.0,29.96,WNW,282,0.0,-999.0,45,-99.99,,,-99.99,470.000000,,2013-07-26 21:43:00,
2013-07-26 17:53:00,76.0,54.0,29.95,WSW,250,0.0,-999.0,47,-99.99,,,-99.99,44.000000,,2013-07-26 21:53:00,
2013-07-26 18:02:00,76.0,54.0,29.95,WSW,250,0.0,-999.0,47,-99.99,,,-99.99,44.000000,,2013-07-26 22:02:00,
2013-07-26 18:12:00,75.0,53.0,29.95,WNW,301,0.0,-999.0,47,-99.99,,,-99.99,55.000000,,2013-07-26 22:12:00,
2013-07-26 18:22:00,75.0,53.0,29.95,NW,313,0.0,-999.0,47,-99.99,,,-99.99,127.000000,,2013-07-26 22:22:00,
2013-07-26 18:43:00,75.0,54.0,29.95,NW,311,0.0,-999.0,48,-99.99,,,-99.99,37.000000,,2013-07-26 22:43:00,
2013-07-26 18:53:00,75.0,53.0,29.95,NW,308,0.0,-999.0,47,-99.99,,,-99.99,37.000000,,2013-07-26 22:53:00,
2013-07-26 19:02:00,75.0,53.0,29.95,NW,308,0.0,-999.0,47,-99.99,,,-99.99,37.000000,,2013-07-26 23:02:00,
2013-07-26 19:12:00,74.0,54.0,29.95,NW,313,0.0,-999.0,49,-99.99,,,-99.99,58.000000,,2013-07-26 23:12:00,
2013-07-26 19:22:00,74.0,54.0,29.95,NW,315,0.0,-999.0,50,-99.99,,,-99.99,40.000000,,2013-07-26 23:22:00,
2013-07-26 19:32:00,74.0,54.0,29.94,NW,315,0.0,-999.0,50,-99.99,,,-99.99,30.000000,,2013-07-26 23:32:00,
2013-07-26 19:43:00,74.0,54.0,29.94,NW,315,0.0,-999.0,50,-99.99,,,-99.99,30.000000,,2013-07-26 23:43:00,
2013-07-26 19:53:00,73.0,55.0,29.94,NW,323,0.0,-999.0,54,-99.99,,,-99.99,53.000000,,2013-07-26 23:53:00,
2013-07-26 20:02:00,73.0,55.0,29.94,NW,323,0.0,-999.0,54,-99.99,,,-99.99,46.000000,,2013-07-27 00:02:00,
2013-07-26 20:22:00,73.0,57.0,29.94,NW,323,0.0,-999.0,58,-99.99,,,-99.99,23.000000,,2013-07-27 00:22:00,
2013-07-26 20:43:00,71.0,57.0,29.94,NW,323,0.0,-999.0,62,-99.99,,,-99.99,9.000000,,2013-07-27 00:43:00,
2013-07-26 20:53:00,71.0,57.0,29.94,NW,323,0.0,-999.0,62,-99.99,,,-99.99,9.000000,,2013-07-27 00:53:00,
2013-07-26 21:02:00,69.0,57.0,29.94,NW,323,0.0,-999.0,66,-99.99,,,-99.99,0.000000,,2013-07-27 01:02:00,
2013-07-26 21:12:00,67.0,58.0,29.95,NW,323,0.0,-999.0,72,-99.99,,,-99.99,0.000000,,2013-07-27 01:12:00,
2013-07-26 21:22:00,65.0,57.0,29.96,NW,323,0.0,-999.0,75,-99.99,,,-99.99,0.000000,,2013-07-27 01:22:00,
2013-07-26 21:32:00,65.0,57.0,29.96,NW,323,0.0,-999.0,75,-99.99,,,-99.99,0.000000,,2013-07-27 01:32:00,
2013-07-26 21:43:00,63.0,56.0,29.96,NW,323,0.0,-999.0,78,-99.99,,,-99.99,0.000000,,2013-07-27 01:43:00,
2013-07-26 21:53:00,63.0,56.0,29.96,NW,323,0.0,-999.0,78,-99.99,,,-99.99,0.000000,,2013-07-27 01:53:00,
2013-07-26 22:02:00,63.0,56.0,29.96,NW,323,0.0,-999.0,78,-99.99,,,-99.99,0.000000,,2013-07-27 02:02:00,
2013-07-26 22:12:00,61.0,56.0,29.96,NW,323,0.0,-999.0,83,-99.99,,,-99.99,0.000000,,2013-07-27 02:12:00,
2013-07-26 22:22:00,60.0,55.0,29.97,NW,323,0.0,-999.0,85,-99.99,,,-99.99,0.000000,,2013-07-27 02:22:00,
2013-07-26 22:32:00,59.0,55.0,29.96,NW,323,0.0,-999.0,87,-99.99,,,-99.99,0.000000,,2013-07-27 02:32:00,
2013-07-26 22:43:00,59.0,55.0,29.96,NW,323,0.0,-999.0,87,-99.99,,,-99.99,0.000000,,2013-07-27 02:43:00,
2013-07-26 22:53:00,59.0,56.0,29.96,NW,323,0.0,-999.0,89,-99.99,,,-99.99,0.000000,,2013-07-27 02:53:00,
2013-07-26 23:03:00,59.0,56.0,29.96,NW,323,0.0,-999.0,89,-99.99,,,-99.99,0.000000,,2013-07-27 03:03:00,
2013-07-26 23:12:00,58.0,55.0,29.97,NW,323,0.0,-999.0,90,-99.99,,,-99.99,0.000000,,2013-07-27 03:12:00,
2013-07-26 23:33:00,58.0,55.0,29.97,NW,323,0.0,-999.0,91,-99.99,,,-99.99,0.000000,,2013-07-27 03:33:00,
2013-07-26 23:44:00,57.0,55.0,29.97,NW,323,0.0,-999.0,92,-99.99,,,-99.99,0.000000,,2013-07-27 03:44:00,
2013-07-26 23:52:00,57.0,55.0,29.96,NW,323,0.0,-999.0,93,-99.99,,,-99.99,0.000000,,2013-07-27 03:52:00,